LIRA

Rome/Ciampino Airport

Airport
ICAO code
LIRA
IATA Code
CIA
Summary
ICAO Region
EUR
ICAO Territory
Location

Ciampino, Lazio

Serving
Rome
Elevation
427 ft
Coordinates
41° 47' 54" N , 12° 35' 48" E
KCC
Metar
Observation
LIRA 042050Z 06006KT CAVOK 09/04 Q1023
Station
Roma / Ciampino
Date/Time
2023-02-04 20:50:00
Wind direction
60°
Wind speed
06 kts
Lowest cloud amount
clouds and visibility OK
Temperature
9°C
Dew point
4°C
Humidity
70%
QNH
1023 hPa
Weather condition
n/a

Secondary international airport serving Rome.

Climatology

Dry-summer subtropical ”Mediterranean" climate (Köppen climate classification Csa) - characterized by hot, dry summers and mild winters. During the summer, subtropical high pressure cells dominate, making rainfall unlikely except for the occasional thunderstorm. In the winter, periodic storms bring rain (snow at higher elevations).

Runways

Designator Length Width Surface Rops
15/33 2207 47 ASP Yes/Yes

Airport map

Aerial View

SKYbrary Partners:

Safety knowledge contributed by: